TimeMDT,TemperatureF,Dew PointF,Humidity,Sea Level PressureIn,VisibilityMPH,Wind Direction,Wind SpeedMPH,Gust SpeedMPH,PrecipitationIn,Events,Conditions,WindDirDegrees,DateUTC
12:54 AM,43.0,34.0,71,30.08,10.0,SW,11.5,-,N/A,,Clear,220,2012-10-14 06:54:00
1:54 AM,42.1,34.0,73,30.08,10.0,SW,10.4,-,N/A,,Clear,220,2012-10-14 07:54:00
2:54 AM,44.1,35.1,71,30.08,10.0,SW,12.7,-,N/A,,Clear,220,2012-10-14 08:54:00
3:54 AM,42.1,34.0,73,30.09,10.0,SW,9.2,-,N/A,,Clear,230,2012-10-14 09:54:00
4:54 AM,42.1,34.0,73,30.10,10.0,SW,11.5,-,N/A,,Clear,230,2012-10-14 10:54:00
5:54 AM,39.9,33.1,77,30.12,10.0,SW,8.1,-,N/A,,Clear,230,2012-10-14 11:54:00
6:54 AM,39.9,34.0,79,30.12,10.0,SW,11.5,-,N/A,,Clear,220,2012-10-14 12:54:00
7:54 AM,41.0,34.0,76,30.13,10.0,SSW,11.5,-,N/A,,Clear,210,2012-10-14 13:54:00
8:54 AM,48.9,36.0,61,30.12,10.0,SW,12.7,-,N/A,,Clear,230,2012-10-14 14:54:00
9:54 AM,55.0,37.0,51,30.09,10.0,WSW,16.1,-,N/A,,Clear,240,2012-10-14 15:54:00
10:54 AM,61.0,36.0,39,30.06,10.0,West,19.6,-,N/A,,Clear,270,2012-10-14 16:54:00
11:54 AM,63.0,35.1,35,30.04,10.0,West,20.7,27.6,N/A,,Clear,270,2012-10-14 17:54:00
12:54 PM,66.0,36.0,33,30.01,10.0,West,20.7,28.8,N/A,,Mostly Cloudy,270,2012-10-14 18:54:00
1:54 PM,64.0,35.1,34,29.99,10.0,West,12.7,26.5,N/A,,Overcast,280,2012-10-14 19:54:00
2:54 PM,64.0,35.1,34,29.97,10.0,WNW,15.0,20.7,N/A,,Overcast,290,2012-10-14 20:54:00
3:54 PM,63.0,34.0,34,29.97,10.0,West,13.8,23.0,N/A,,Overcast,270,2012-10-14 21:54:00
4:54 PM,63.0,34.0,34,29.96,10.0,West,15.0,-,N/A,,Mostly Cloudy,270,2012-10-14 22:54:00
5:54 PM,60.1,34.0,38,29.96,10.0,North,-9999.0,-,N/A,,Overcast,0,2012-10-14 23:54:00
6:54 PM,60.1,33.1,36,29.92,10.0,WSW,17.3,28.8,N/A,,Overcast,240,2012-10-15 00:54:00
7:54 PM,59.0,33.1,38,29.89,10.0,SW,23.0,28.8,N/A,,Mostly Cloudy,230,2012-10-15 01:54:00
8:54 PM,57.0,33.1,40,29.87,10.0,SW,10.4,-,N/A,,Scattered Clouds,230,2012-10-15 02:54:00
9:54 PM,62.1,30.0,30,29.83,10.0,WSW,23.0,28.8,N/A,,Scattered Clouds,240,2012-10-15 03:54:00
10:54 PM,61.0,30.9,32,29.80,10.0,WSW,25.3,31.1,N/A,,Clear,240,2012-10-15 04:54:00
11:54 PM,61.0,32.0,34,29.78,10.0,WSW,19.6,24.2,N/A,,Clear,240,2012-10-15 05:54:00